Home   Weather   Washington DC   Past weeks
Flag for USA

Past Weather in Washington DC, USA — Yesterday and Last 2 Weeks

Now
98 °F

Scattered clouds.


Feels Like: 107 °F
Forecast: 98 / 80 °F
Wind: 13 mph from Northwest

Location: Reagan National Airport

Current Time: Jul 21, 2019 at 3:20:48 pm

Latest Report: Jul 21, 2019 at 1:52 pm


Visibility: 10 mi

Pressure: 29.88 "Hg

Humidity: 43%

Dew Point: 72 °F

Location of Washington DCLocation

Past Weather in Washington DC — Graph

°F

Washington DC Temperature Yesterday

Maximum temperature yesterday: 96 °F (at 4:52 pm)
Minimum temperature yesterday: 81 °F (at 5:52 am)
Average temperature yesterday: 90 °F

High & Low Weather Summary for the Past Weeks

 TemperatureHumidityPressure
High98 °F (Jul 21, 1:52 pm)97% (Jul 8, 9:28 am)30.12 "Hg (Jul 8, 9:28 am)
Low68 °F (Jul 9, 4:52 am)36% (Jul 13, 3:52 pm)29.78 "Hg (Jul 11, 5:52 pm)
Average82 °F68%29.94 "Hg
* Reported Jul 6 1:52 pm — Jul 21 1:52 pm, Washington DC. Weather by CustomWeather, © 2019

Note: Actual official high and low records may vary slightly from our data, if they occured in-between our weather recording intervals... More about our weather records

Advertising

Washington DC Weather History for the Previous 24 Hours

Scroll right to see more
 ConditionsComfort  
Time TempWeatherWind HumidityBarometerVisibility
1:52 pm
Sun, Jul 21
98 °FScattered clouds.13 mph43%29.88 "Hg10 mi
12:52 pm97 °FPassing clouds.13 mph45%29.88 "Hg10 mi
11:52 am95 °FPassing clouds.9 mph49%29.90 "Hg10 mi
10:52 am94 °FPassing clouds.14 mph51%29.90 "Hg10 mi
9:52 am93 °FPassing clouds.13 mph52%29.91 "Hg10 mi
8:52 am89 °FScattered clouds.5 mph57%29.91 "Hg10 mi
7:52 am86 °FPassing clouds.5 mph63%29.91 "Hg10 mi
6:52 am82 °FPartly sunny.7 mph70%29.88 "Hg10 mi
5:52 am82 °FPassing clouds.7 mph72%29.86 "Hg10 mi
4:52 am84 °FPassing clouds.No wind70%29.85 "Hg10 mi
3:52 am85 °FPassing clouds.3 mph70%29.86 "Hg10 mi
2:52 am84 °FPassing clouds.No wind72%29.88 "Hg10 mi
1:52 am86 °FPassing clouds.5 mph63%29.88 "Hg10 mi
12:52 am88 °FMostly cloudy.6 mph54%29.87 "Hg10 mi
11:52 pm
Sat, Jul 20
88 °FMostly cloudy.5 mph50%29.87 "Hg10 mi
10:52 pm88 °FPassing clouds.7 mph54%29.86 "Hg10 mi
9:59 pm90 °FPassing clouds.10 mph47%29.88 "Hg10 mi
8:52 pm93 °FPassing clouds.6 mph49%29.85 "Hg10 mi
7:52 pm95 °FScattered clouds.9 mph46%29.85 "Hg10 mi
6:52 pm96 °FScattered clouds.14 mph44%29.85 "Hg10 mi
5:52 pm96 °FScattered clouds.15 mph46%29.85 "Hg10 mi
4:52 pm96 °FScattered clouds.8 mph49%29.85 "Hg10 mi
3:52 pm94 °FScattered clouds.8 mph52%29.85 "Hg10 mi
Weather by CustomWeather, © 2019

See weather overview